Total_Precipitation_Accumulation
0.48 0.42 0.53 0.61 0.57 0.60 0.82 0.81 0.72 0.48 0.39 0.42 0.45 0.49 0.49 0.46 0.42 0.39 0.44 0.48 0.53 0.65 0.74 0.75 0.77 0.77 0.82 0.92 0.97 1.14 1.36 1.54 1.56 1.53 1.60 1.65 1.64 1.72 1.72 1.75 1.82 1.95 2.09 2.23
0.40 0.29 0.38 0.46 0.39 0.44 0.50 0.52 0.49 0.39 0.43 0.40 0.41 0.39 0.43 0.45 0.45 0.45 0.48 0.51 0.51 0.58 0.69 0.75 0.79 0.79 0.84 0.95 0.98 1.07 1.24 1.43 1.53 1.53 1.57 1.61 1.58 1.66 1.73 1.75 1.77 1.86 1.92 1.96
0.60 0.30 0.55 0.74 0.53 0.50 0.51 0.52 0.53 0.53 0.50 0.40 0.39 0.40 0.46 0.49 0.52 0.54 0.57 0.56 0.55 0.60 0.67 0.73 0.80 0.80 0.85 0.93 0.97 1.01 1.13 1.30 1.42 1.45 1.49 1.51 1.52 1.59 1.68 1.73 1.68 1.70 1.73 1.73
0.94 0.68 1.10 0.80 0.44 0.45 0.51 0.56 0.55 0.55 0.48 0.45 0.45 0.47 0.46 0.47 0.55 0.61 0.62 0.61 0.61 0.66 0.68 0.69 0.73 0.80 0.84 0.87 0.92 0.96 1.06 1.21 1.38 1.41 1.42 1.41 1.44 1.49 1.56 1.62 1.64 1.58 1.57 1.55
1.35 0.99 0.69 0.45 0.32 0.46 0.57 0.60 0.55 0.47 0.39 0.37 0.37 0.38 0.40 0.41 0.45 0.55 0.59 0.60 0.62 0.67 0.70 0.67 0.69 0.76 0.82 0.86 0.89 0.95 1.09 1.20 1.33 1.41 1.41 1.37 1.40 1.42 1.43 1.44 1.51 1.48 1.43 1.47
1.57 1.18 0.71 0.47 0.25 0.30 0.51 0.69 0.45 0.39 0.38 0.38 0.40 0.49 0.46 0.40 0.38 0.43 0.46 0.52 0.59 0.62 0.63 0.62 0.65 0.70 0.76 0.84 0.86 0.93 1.10 1.21 1.27 1.33 1.36 1.34 1.34 1.38 1.36 1.31 1.33 1.35 1.30 1.32
1.32 1.08 0.53 0.32 0.21 0.27 0.66 0.76 0.40 0.36 0.38 0.40 0.51 0.59 0.49 0.41 0.39 0.41 0.46 0.50 0.53 0.56 0.57 0.61 0.64 0.67 0.72 0.78 0.88 0.93 1.03 1.10 1.18 1.24 1.28 1.23 1.27 1.28 1.29 1.27 1.26 1.24 1.20 1.22
1.08 1.20 0.65 0.28 0.28 0.58 0.71 0.37 0.30 0.29 0.31 0.35 0.37 0.36 0.35 0.37 0.40 0.43 0.47 0.48 0.50 0.53 0.54 0.57 0.60 0.62 0.66 0.76 0.85 0.89 0.90 0.94 1.05 1.17 1.19 1.14 1.21 1.20 1.17 1.22 1.25 1.25 1.22 1.26
0.88 0.79 0.53 0.39 0.47 0.50 0.43 0.35 0.27 0.28 0.27 0.31 0.34 0.35 0.36 0.39 0.41 0.45 0.48 0.49 0.50 0.51 0.50 0.52 0.57 0.59 0.65 0.73 0.78 0.88 0.87 0.89 0.97 1.07 1.14 1.15 1.17 1.17 1.17 1.17 1.19 1.23 1.23 1.20
0.60 0.46 0.39 0.37 0.33 0.30 0.27 0.30 0.28 0.29 0.31 0.33 0.35 0.36 0.39 0.40 0.43 0.48 0.51 0.52 0.54 0.51 0.51 0.55 0.59 0.61 0.65 0.71 0.76 0.84 0.86 0.88 0.93 1.01 1.12 1.13 1.15 1.16 1.17 1.20 1.27 1.29 1.24 1.19
0.49 0.36 0.29 0.24 0.24 0.26 0.23 0.22 0.22 0.23 0.27 0.32 0.34 0.36 0.39 0.43 0.46 0.51 0.54 0.54 0.53 0.50 0.53 0.56 0.58 0.61 0.63 0.67 0.73 0.82 0.84 0.85 0.89 0.95 1.10 1.14 1.18 1.21 1.23 1.20 1.38 1.51 1.38 1.34
0.45 0.33 0.38 0.30 0.24 0.25 0.26 0.24 0.24 0.26 0.27 0.28 0.32 0.37 0.40 0.46 0.49 0.51 0.52 0.50 0.49 0.48 0.51 0.57 0.58 0.61 0.63 0.66 0.72 0.79 0.83 0.85 0.86 0.92 1.06 1.09 1.13 1.23 1.28 1.26 1.29 1.28 1.31 1.38
0.33 0.24 0.27 0.28 0.25 0.24 0.27 0.27 0.29 0.31 0.32 0.32 0.32 0.35 0.41 0.47 0.49 0.49 0.47 0.49 0.52 0.56 0.57 0.59 0.58 0.61 0.66 0.67 0.67 0.74 0.84 0.87 0.88 0.89 0.98 1.03 0.97 1.06 1.13 1.15 1.17 1.19 1.21 1.24
0.23 0.24 0.25 0.24 0.27 0.25 0.25 0.26 0.29 0.30 0.30 0.31 0.34 0.36 0.39 0.43 0.44 0.44 0.49 0.56 0.55 0.55 0.57 0.58 0.55 0.61 0.67 0.66 0.64 0.71 0.79 0.84 0.89 0.91 0.95 0.98 0.95 0.95 0.95 1.01 1.08 1.13 1.18 1.24
0.20 0.23 0.26 0.24 0.23 0.22 0.21 0.22 0.24 0.26 0.27 0.28 0.29 0.32 0.37 0.40 0.43 0.46 0.49 0.51 0.48 0.49 0.52 0.50 0.50 0.58 0.62 0.61 0.61 0.69 0.79 0.86 0.90 0.96 0.98 0.98 0.96 0.96 0.92 0.93 0.97 1.02 1.10 1.28
0.20 0.17 0.17 0.19 0.20 0.21 0.21 0.22 0.25 0.29 0.30 0.31 0.32 0.36 0.42 0.43 0.42 0.41 0.43 0.43 0.45 0.51 0.53 0.52 0.54 0.60 0.61 0.58 0.57 0.63 0.75 0.94 1.00 1.03 1.02 0.99 0.98 0.96 0.95 0.96 0.98 1.01 1.10 1.27
0.28 0.21 0.19 0.19 0.20 0.21 0.24 0.26 0.29 0.33 0.34 0.35 0.40 0.43 0.43 0.39 0.36 0.37 0.42 0.44 0.45 0.48 0.50 0.53 0.57 0.58 0.58 0.58 0.60 0.66 0.75 0.87 0.99 1.02 1.02 1.03 1.03 1.01 0.99 1.01 1.03 1.03 1.09 1.25
0.30 0.28 0.26 0.29 0.29 0.27 0.26 0.26 0.28 0.32 0.35 0.38 0.40 0.42 0.42 0.41 0.41 0.43 0.47 0.44 0.39 0.39 0.46 0.52 0.55 0.56 0.55 0.58 0.65 0.72 0.81 0.89 0.96 1.06 1.10 1.13 1.14 1.08 1.06 1.06 1.03 1.05 1.10 1.21
0.26 0.27 0.26 0.27 0.29 0.30 0.31 0.32 0.32 0.32 0.32 0.33 0.34 0.38 0.40 0.41 0.42 0.44 0.44 0.41 0.41 0.46 0.53 0.53 0.55 0.51 0.54 0.62 0.74 0.80 0.87 0.95 1.02 1.09 1.13 1.22 1.21 1.13 1.11 1.09 1.08 1.08 1.12 1.20
0.27 0.27 0.28 0.27 0.26 0.29 0.31 0.32 0.32 0.30 0.30 0.32 0.34 0.34 0.35 0.38 0.41 0.43 0.43 0.44 0.52 0.61 0.61 0.59 0.55 0.54 0.60 0.69 0.83 0.87 0.91 1.01 1.10 1.15 1.18 1.21 1.24 1.24 1.21 1.18 1.16 1.16 1.17 1.21
0.30 0.28 0.27 0.26 0.25 0.27 0.31 0.34 0.35 0.32 0.31 0.35 0.39 0.40 0.40 0.40 0.42 0.44 0.46 0.51 0.56 0.59 0.60 0.59 0.57 0.65 0.78 0.87 0.88 0.88 0.94 1.06 1.13 1.17 1.22 1.27 1.30 1.29 1.27 1.24 1.20 1.20 1.20 1.19
0.35 0.33 0.31 0.31 0.31 0.33 0.35 0.37 0.39 0.38 0.36 0.38 0.40 0.42 0.43 0.44 0.43 0.45 0.51 0.63 0.68 0.67 0.63 0.60 0.66 0.80 0.92 0.94 0.87 0.89 0.98 1.11 1.19 1.20 1.25 1.28 1.34 1.38 1.32 1.29 1.28 1.25 1.24 1.22
0.43 0.42 0.41 0.43 0.45 0.46 0.43 0.43 0.46 0.46 0.47 0.49 0.50 0.50 0.52 0.54 0.52 0.53 0.63 0.68 0.69 0.69 0.68 0.74 0.81 0.87 0.91 0.91 0.91 0.96 1.08 1.22 1.29 1.30 1.32 1.34 1.39 1.45 1.44 1.40 1.34 1.32 1.33 1.30
0.52 0.51 0.52 0.54 0.53 0.50 0.52 0.55 0.56 0.57 0.58 0.61 0.63 0.62 0.61 0.58 0.57 0.62 0.72 0.75 0.73 0.73 0.77 0.83 0.84 0.86 0.89 0.91 0.97 1.08 1.21 1.32 1.38 1.40 1.41 1.41 1.43 1.48 1.50 1.47 1.42 1.34 1.30 1.28
0.59 0.59 0.59 0.60 0.63 0.67 0.67 0.64 0.60 0.59 0.58 0.61 0.64 0.65 0.66 0.67 0.72 0.77 0.76 0.76 0.75 0.75 0.77 0.79 0.81 0.83 0.85 0.93 1.04 1.19 1.32 1.41 1.51 1.55 1.53 1.51 1.49 1.51 1.52 1.47 1.41 1.32 1.26 1.23
0.63 0.65 0.67 0.71 0.76 0.78 0.74 0.67 0.64 0.63 0.61 0.60 0.62 0.63 0.66 0.69 0.73 0.75 0.76 0.75 0.74 0.77 0.79 0.79 0.80 0.85 0.93 1.01 1.10 1.24 1.34 1.42 1.53 1.57 1.53 1.50 1.49 1.50 1.51 1.46 1.34 1.25 1.18 1.15
0.63 0.64 0.63 0.64 0.68 0.71 0.71 0.70 0.70 0.69 0.65 0.63 0.64 0.65 0.67 0.68 0.70 0.72 0.72 0.73 0.74 0.76 0.78 0.81 0.85 0.92 1.00 1.08 1.17 1.26 1.34 1.41 1.53 1.62 1.57 1.53 1.51 1.52 1.50 1.41 1.28 1.18 1.11 1.09